Location: Arapahoe Free Will Baptist Church
(35.0275°N, 76.8265°W)
Time: 07:45:29
(UTC+00:00)

Daily predictions for brighter satellites

Satellite Brightness Start Highest point End
(mag) Time Altitude Azimuth Time Altitude Azimuth Time Altitude Azimuth
Hubble Space Telescope 2.5 22:46:26 10° SW 22:49:49 24° SSE 22:53:13 10° ESE
Meteor 1-24 Rocket 3.7 22:45:19 10° S 22:50:43 83° W 22:56:03 10° N
Cosmos 1943 3.2 22:45:32 10° NNW 22:51:12 76° ENE 22:56:49 10° SSE
CZ-2C R/B 4.5 22:52:42 10° ENE 22:54:16 11° E 22:55:49 10° ESE
COSMOS 2455 2.9 22:48:33 10° SSW 22:54:34 89° ESE 23:00:38 10° NNE
CZ-4B R/B 1.4 22:51:48 10° NNE 22:55:06 57° E 22:58:18 10° S
Cosmos 1844 4.3 22:50:47 10° S 22:55:51 36° ESE 23:01:00 10° NE
COSMO-SKYMED 1 2.7 22:53:01 10° NNE 22:57:16 54° E 23:01:31 10° S
TIMED 4.5 22:53:30 10° NNW 22:57:53 85° ENE 23:02:14 10° SSE
Cosmos 1689 Rocket 3.7 22:56:12 10° NE 22:58:01 15° E 22:59:49 10° SE
H-2A R/B 3.6 22:55:38 10° S 22:59:25 48° W 23:03:24 10° NNW
Feng Yun 1-1 Rocket 4.4 22:58:13 10° SE 23:03:23 49° ENE 23:08:39 10° N
Okean-O 3.9 23:00:13 10° ESE 23:03:28 20° ENE 23:06:43 10° NNE
Okean O Rocket 2.0 23:01:20 10° S 23:05:45 69° WSW 23:10:11 10° NNW
Abrixas rocket 4.0 23:07:45 10° WNW 23:10:03 26° SW 23:12:19 10° SSE
SMAP 4.5 23:07:23 10° S 23:11:47 42° W 23:16:13 10° NNW
CZ-2D R/B 3.4 23:10:20 10° SSE 23:14:03 48° ENE 23:17:47 10° N
CZ-2C R/B 3.3 23:10:02 10° SSE 23:15:01 50° ENE 23:20:17 10° N
H-2A R/B 2.8 23:12:14 10° SE 23:16:21 27° ENE 23:20:33 10° NNE
Cosmos 1844 Rocket 2.7 23:11:26 10° SSW 23:17:04 73° ESE 23:22:43 10° NNE
SAR-Lupe-4 4.0 23:15:28 10° NNE 23:18:52 41° E 23:22:15 10° S
Cosmos 2279 Rocket 4.2 23:14:17 10° N 23:20:34 80° W 23:26:47 10° S
NOSS 2-1 (C) 4.0 23:17:57 10° S 23:21:05 28° ESE 23:22:35 20° ENE
Cosmos 1898 Rocket 4.5 23:17:03 10° SSE 23:21:25 27° E 23:24:45 15° NE
Meteor 1-21 Rocket 4.4 23:17:02 10° SSE 23:22:19 49° E 23:27:37 10° NNE
YAOGAN 1 3.2 23:20:13 10° SE 23:24:03 32° ENE 23:27:52 10° N
Cosmos 1892 Rocket 4.2 23:20:42 10° SSW 23:24:57 57° W 23:29:14 10° N
Helios 1A Rocket 3.9 23:22:51 10° SE 23:26:15 25° ENE 23:29:40 10° NNE
Cosmos 773 Rocket 4.2 23:21:08 10° NNW 23:26:16 74° WSW 23:31:21 10° S
NOSS 2-1 (D) 3.7 23:23:41 10° S 23:26:57 33° ESE 23:28:19 23° ENE
Cosmos 2278 Rocket 4.0 23:24:42 10° ESE 23:26:14 12° ESE 23:26:14 12° ESE
SAR-Lupe-1 4.0 23:26:12 10° NNE 23:29:44 59° E 23:33:14 10° S
Cosmos 1818 3.8 23:25:34 10° SW 23:30:57 71° WNW 23:36:24 10° NNE
USA 267 3.7 23:26:17 16° ENE 23:31:17 43° SE 23:37:26 10° SSW
Centaur D-1AR AC-48 4.3 23:19:00 10° WSW 23:33:43 29° S 23:38:17 10° SE
Meteor 2-10 Rocket 3.6 23:34:33 10° N 23:40:01 87° W 23:45:14 10° S
CSL-04 Rocket 4.3 23:36:26 10° SE 23:41:09 33° ENE 23:45:57 10° N
X-37B 2.1 23:38:24 10° W 23:41:12 27° NNW 23:42:23 21° NNE
SJ 16-02 1.6 23:37:29 10° SSW 23:41:52 69° WNW 23:46:15 10° N
SJ-11-01 4.4 23:43:04 10° SSE 23:47:36 50° ENE 23:52:07 10° N
MOS 1 Rocket 3.9 23:43:27 10° N 23:47:36 51° WNW 23:51:45 10° SSW
Iridium 4 Rocket 3.9 23:44:02 10° NNE 23:49:14 40° E 23:54:00 10° SSE
Cosmos 1455 2.0 23:45:27 10° N 23:49:15 69° E 23:53:03 10° SSE
Cosmos 1340 2.9 23:46:31 10° SSE 23:50:04 43° E 23:50:17 42° E
Cosmos 1703 3.1 23:46:57 10° S 23:50:48 68° E 23:53:18 21° NNE
Cosmos 489 Rocket 4.5 23:46:07 10° N 23:52:24 59° ENE 23:58:36 10° SSE
ISS -1.5 23:53:09 10° WNW 23:55:35 18° NNW 23:56:50 16° N
